Location: Brno
(49.2000°N, 16.6330°E)
Time: 06:59:27
(UTC+02:00)

Meteor 1-4 Rocket - Visible Passes

Search period start: 30 May 2016 00:00
Search period end: 09 June 2016 00:00
Orbit: 456 x 514 km, 81.2° (Epoch: 29 May)

Date Brightness Start Highest point End Pass type
(mag) Time Alt. Az. Time Alt. Az. Time Alt. Az.
30 May 5.4 01:12:06 10° NE 01:13:47 13° ENE 01:15:30 10° E visible
30 May 2.6 02:45:43 10° NNW 02:49:28 66° W 02:51:44 23° S visible
31 May 2.7 02:21:02 10° N 02:24:50 80° E 02:27:00 24° SSE visible
01 Jun 3.3 01:56:26 10° N 02:00:10 52° ENE 02:02:19 23° SE visible
01 Jun 4.7 03:32:55 10° NW 03:34:57 14° W 03:36:40 11° WSW visible
02 Jun 4.0 01:31:56 10° N 01:35:26 35° ENE 01:37:38 19° SE visible
02 Jun 4.3 03:07:36 10° NW 03:10:27 20° W 03:11:59 16° WSW visible
03 Jun 4.6 01:07:32 10° NNE 01:10:42 24° ENE 01:12:58 15° ESE visible
03 Jun 3.7 02:42:34 10° NNW 02:45:55 30° W 02:47:20 23° SW visible
04 Jun 5.0 00:43:16 10° NNE 00:45:54 17° ENE 00:48:20 11° ESE visible
04 Jun 3.2 02:17:42 10° NNW 02:21:21 44° W 02:22:42 31° SW visible
05 Jun 5.3 00:19:22 10° NE 00:21:02 12° ENE 00:22:42 10° E visible
05 Jun 2.6 01:52:55 10° NNW 01:56:44 69° W 01:58:04 38° S visible
06 Jun 2.7 01:28:14 10° N 01:32:04 78° ENE 01:33:28 38° SSE visible
07 Jun 3.3 01:03:37 10° N 01:07:22 50° ENE 01:08:52 31° SE visible
07 Jun 4.7 02:40:01 10° NW 02:42:10 15° W 02:43:13 13° WSW visible
08 Jun 3.9 00:39:06 10° N 00:42:38 34° ENE 00:44:17 23° ESE visible
08 Jun 4.3 02:14:43 10° NW 02:17:39 21° W 02:18:38 19° WSW visible
